Location: Kosice
(48.7167°N, 21.2500°E)
Time: 08:26:51
(UTC+01:00)

ISS - Pass Details

Date: 24 January 2021
Orbit: 417 x 422 km, 51.6° (Epoch: 05 March)

Event Time Altitude Azimuth Distance (km) Brightness Sun altitude
Rises 18:43:57 0° 268° (W) 2,372 1.5 -23.4°
Reaches altitude 10° 18:46:05 10° 274° (W) 1,509 0.1 -23.8°
Enters shadow 18:48:25 37° 298° (WNW) 680 -2.3 -24.2°
